Regional Weather Roundup
Issued by NWS

Home | Current Version | Previous Version | Graphics & Text | Print | Product List | Glossary On
Versions: 1 2 3 4 5 6 7 8 9 10 11 12 13 14 15 16 17 18 19 20 21 22 23 24 25 26 27 28 29 30 31 32 33 34 35 36 37 38 39 40 41 42 43 44 45 46 47 48 49 50
764
ASUS43 KMKX 212211
RWRWI

WISCONSIN REGIONAL WEATHER ROUNDUP
NATIONAL WEATHER SERVICE MILWAUKEE/SULLIVAN WI
500 PM CDT SAT OCT 21 2017

NOTE: "FAIR" INDICATES FEW OR NO CLOUDS BELOW 12,000 FEET WITH NO
SIGNIFICANT WEATHER AND/OR OBSTRUCTIONS TO VISIBILITY.

WIZ001-002-006>008-014>016-023>028-212300-
NORTHWEST WISCONSIN

CITY           SKY/WX    TMP DP  RH WIND       PRES   REMARKS
SUPERIOR ARPT  CLOUDY    64  60  86 S14G21    29.65S
ASHLAND        CLOUDY    67  58  72 S16G24    29.70S
HAYWARD        CLOUDY    65  57  75 S15G24    29.72S
SIREN          CLOUDY    65  58  76 S18G26    29.68S
CUMBERLAND     CLOUDY    63  55  77 S16G23    29.71F
RICE LAKE      CLOUDY    66  58  76 SE20G25   29.73F
CHETEK         CLOUDY    66  59  78 S14G21    29.73F
LADYSMITH      CLOUDY    67  58  72 S15G25    29.78F
EAU CLAIRE     CLOUDY    68  58  70 S20       29.75F
MENOMONIE      CLOUDY    68  59  72 SE17      29.73F
NEW RICHMOND   CLOUDY    65  57  75 S15G23    29.68F
OSCEOLA        CLOUDY    67  59  76 S16G22    29.69F
$$

WIZ003>005-009-010-017-018-212300-
NORTH CENTRAL WISCONSIN

CITY           SKY/WX    TMP DP  RH WIND       PRES   REMARKS
MANITOWISH WTR CLOUDY    66  58  77 S17G28    29.79S
ARBOR VITAE    PTCLDY    67  58  72 S20G29    29.81S
WOODRUFF       PTCLDY    67  58  72 S20G29    29.81S
RHINELANDER    CLOUDY    67  57  70 S10       29.85R
EAGLE RIVER    NOT AVBL
LAND O LAKES   MOCLDY    69  55  62 S9        29.82F
PHILLIPS       CLOUDY    65  58  77 S17G31    29.78S
TOMAHAWK       CLOUDY    65  56  71 CALM      29.84S
MEDFORD        RAIN      63  56  78 S8        29.83S
MERRILL        CLOUDY    68  57  68 SW6       29.85S
$$

WIZ029-030-035-036-043>047-212300-
CENTRAL WISCONSIN

CITY           SKY/WX    TMP DP  RH WIND       PRES   REMARKS
WAUSAU         CLOUDY    71  56  58 S10       29.83S
MOSINEE        MOCLDY    70  57  64 S6G13     29.86R
MARSHFIELD     CLOUDY    69  57  65 SE6       29.82F
STEVENS POINT  CLOUDY    71  57  61 S8        29.86R
WAUPACA        MOCLDY    76  58  54 S9G17     29.87S
WAUTOMA        MOCLDY   N/A N/A N/A S7        29.87
WISC RAPIDS    CLOUDY    74  59  59 S10       29.85S
CAMP DOUGLAS   SUNNY     75  59  57 S14G20    29.83S
$$

WIZ011>013-019>022-031-037>040-048>050-212300-
NORTHEAST WISCONSIN

CITY           SKY/WX    TMP DP  RH WIND       PRES   REMARKS
ANTIGO         CLOUDY    69  56  62 S12G23    29.87R
SHAWANO        CLOUDY    74  56  53 S7        29.87F
OCONTO         CLEAR     65  55  68 S10       29.90R
STURGEON BAY   CLEAR     62  54  74 S21G28    29.92R
GREEN BAY      CLEAR     70  57  63 SE10      29.90R
MANITOWOC      CLEAR     61  54  77 S17G28    29.94S
APPLETON       PTCLDY    73  54  49 S13       29.88F
CLINTONVILLE   MOCLDY    73  55  53 S10       29.87S
OSHKOSH        CLEAR     74  58  57 S18       29.88S
$$

WIZ032>034-041-042-053>061-212300-
SOUTHWEST WISCONSIN

CITY           SKY/WX    TMP DP  RH WIND       PRES   REMARKS
LA CROSSE      CLOUDY    70  59  68 SE5       29.79F
SPARTA         CLOUDY    72  59  64 S5        29.82S
VIROQUA        CLOUDY    72  59  64 S13       29.83F
BOSCOBEL       CLOUDY    77  58  51 S7        29.84S
PRAIRIE DU CHI CLOUDY    75  56  51 SE8       29.82S
PLATTEVILLE    CLOUDY    75  60  59 S12       29.88S
$$

WIZ056-057-062-063-064-067-068-212300-
SOUTH CENTRAL WISCONSIN

CITY           SKY/WX    TMP DP  RH WIND       PRES   REMARKS
REEDSBURG      PTSUNNY   74  58  57 S9G17     29.86S
BARABOO/DELLS  PTSUNNY   73  55  54 S14       29.87S
LONE ROCK      CLOUDY    76  60  57 S14       29.86S
MINERAL POINT  CLOUDY    73  59  60 S13       29.89S
MADISON        MOSUNNY   75  57  53 S13       29.89R
MIDDLETON      SUNNY     77  56  49 S12G22    29.90R
WATERTOWN      CLEAR     75  56  50 S12G17    29.90S
MONROE         SUNNY     75  55  50 S17G26    29.90S
JANESVILLE     MOSUNNY   79  54  41 S13       29.91R
$$

WIZ051-052-058>065-066-070>072-212300-
SOUTHEAST WISCONSIN

CITY           SKY/WX    TMP DP  RH WIND       PRES   REMARKS
MILWAUKEE      PTCLDY    73  57  57 S16       29.95R
WAUKESHA       CLEAR     73  54  49 S12G21    29.94S
MILWAUKEE/TIMM CLEAR     75  52  43 S10       29.94S
RACINE         PTCLDY    66  57  72 S14G23    29.97S
BURLINGTON     CLEAR     75  58  54 S9G17     29.94S
KENOSHA        PTCLDY    74  56  53 S15       29.96R
FOND DU LAC    CLEAR     76  55  48 S9G23     29.89S
SHEBOYGAN      CLEAR     66  56  70 S14       29.93F
WEST BEND      CLEAR     73  52  46 S12G17    29.92S
JUNEAU         CLEAR     74  56  53 S12       29.91F
$$

LSZ147-162-212300-
LAKE SUPERIOR

STATION/POSITION TIME  TEMP    WIND        PRES    WAVE
                       AIR SEA DIR/SP/G            HT/PER
                 (UTC) (F)     (DEG/KT/KT) (MB)    (FT/S)
W MID LAKE BUOY  2150   58 52              1005.9R   2/ 4
DEVILS ISLAND    2200   64     180/  8/ 12 1005.4R
PORT WING        1940          170/ 12/ 23 1005.1
SAXON HARBOR     2140   69     180/  5/ 18 1005.4F
$$

LMZ867-665-643>646-212300-
LAKE MICHIGAN

STATION/POSITION TIME  TEMP    WIND        PRES    WAVE
                       AIR SEA DIR/SP/G            HT/PER
                 (UTC) (F)     (DEG/KT/KT) (MB)    (FT/S)
S GREEN BAY BUOY 2130   65 58  160/ 14/ 17 1012.0F
N MID LAKE BUOY  2150   63 58  190/ 23/ 27 1014.0F   6/ 7
NORTHPORT PIER   2132   60     160/ 12/ 25 1013.5S
KEWAUNEE LAKESHO 2148   52     180/  9/ 10 1013.2S
SHEBOYGAN LAKESH 2200   57     180/ 19/ 20 1013.5F
PORT WASHINGTON  2130   61     200/  6/ 11 1014.9S
ATWATER BUOY     2039   59 53  160/ 21/ 25 1013.9F
MILWAUKEE LAKESH 2150   58     140/ 14/ 15   N/A
S MID LAKE BUOY  2150   65 61  150/ 17/ 21 1015.4F   3/ 4
KENOSHA   LAKESH 2200   59     170/ 16/ 19 1014.2
$$

TC  - TEMPERATURE IN CELSIUS
VSB - VISIBILITY IN STATUTE MILES
WCI - WIND CHILL INDEX
HX  - HEAT INDEX





USA.gov is the U.S. government's official web portal to all federal, state and local government web resources and services.